Date,TemperatureHighF,TemperatureAvgF,TemperatureLowF,DewpointHighF,DewpointAvgF,DewpointLowF,HumidityHigh,HumidityAvg,HumidityLow,PressureMaxIn,PressureMinIn,WindSpeedMaxMPH,WindSpeedAvgMPH,GustSpeedMaxMPH,PrecipitationSumIn
2013-7-9,83.9,78.7,75.0,75.4,73.2,71.5,90,83,75,30.17,30.10,3,1,6,0.01
2013-7-10,89.2,77.7,70.6,78.7,72.8,67.8,92,85,66,30.17,30.00,3,1,8,0.00
2013-7-11,80.4,74.3,70.6,76.1,71.3,68.2,92,91,85,30.01,29.92,3,0,5,0.01
2013-7-12,82.3,75.0,70.3,75.1,70.7,67.9,92,87,73,30.04,29.91,2,0,7,0.00
2013-7-13,81.9,74.6,70.6,74.1,70.5,67.8,92,87,74,30.15,30.04,2,1,6,0.00
2013-7-14,87.2,77.1,70.6,77.1,72.2,68.2,92,85,65,30.31,30.12,5,1,13,0.36
2013-7-15,89.1,78.8,71.0,76.4,72.2,68.6,92,81,58,30.36,30.27,3,0,7,0.00
2013-7-16,92.2,80.7,69.8,76.9,72.4,67.4,93,78,51,30.34,30.24,1,0,5,0.00
2013-7-17,90.6,77.3,71.6,78.9,72.7,68.8,92,86,65,30.28,30.17,2,0,4,0.00
2013-7-18,91.3,79.3,68.6,78.6,72.7,66.2,93,81,61,30.22,30.10,2,0,5,0.00
2013-7-19,89.8,81.2,74.1,79.1,74.4,71.6,92,80,63,30.15,30.03,3,1,5,0.00
2013-7-20,86.9,67.6,73.8,78.7,48.8,-99.9,92,72,71,30.09,29.96,2,-144,6,0.00
2013-7-21,89.3,32.2,73.5,78.2,-30.3,-99.9,92,33,65,30.06,29.93,3,-598,4,0.04
2013-7-22,86.7,77.3,71.1,76.8,72.3,68.7,92,85,69,30.03,29.89,3,1,7,0.01
2013-7-23,89.1,80.4,73.6,76.0,72.7,70.2,92,79,59,29.91,29.80,3,1,6,0.00
2013-7-24,92.8,78.0,70.6,76.8,71.4,68.2,92,82,50,29.90,29.78,2,0,7,0.22
2013-7-25,83.7,75.2,69.4,73.7,69.5,67.0,93,83,65,30.07,29.85,2,0,7,0.00
2013-7-26,85.2,75.8,66.9,72.9,69.0,64.5,93,81,61,30.15,30.05,2,0,5,0.01
2013-7-27,81.8,74.1,71.0,75.1,70.7,68.2,92,89,76,30.08,29.97,4,1,8,0.28
2013-7-28,87.7,78.1,71.0,75.6,71.7,68.6,93,82,60,30.03,29.96,2,1,6,0.00
2013-7-29,86.4,77.7,70.7,73.3,70.3,67.2,93,79,56,30.19,30.04,2,0,4,0.00
2013-7-30,85.4,76.4,68.9,71.8,68.6,65.3,93,78,54,30.26,30.17,2,0,5,0.00
2013-7-31,83.1,74.7,71.0,74.3,70.3,68.2,92,87,70,30.20,30.04,3,0,6,0.32